This is the latest recevied weather packets stored in our database for station/object WX9WTF. If no packets are shown the sender has not sent any weather packets the latest 10 day(s).
| Time | Temp. | Humidity | Pressure | Rain* | Wind** | Luminosity | Snow |
|---|---|---|---|---|---|---|---|
| 1777948320 | 20.56° C | 76% | 1003.5 hPa | 0 mm | - | 0 W/m² | - |
| 1777948018 | 20.56° C | 76% | 1003.6 hPa | 0 mm | - | 0 W/m² | - |
| 1777947714 | 20.56° C | 75% | 1003.3 hPa | 0 mm | - | 0 W/m² | - |
| 1777947411 | 21.11° C | 74% | 1003.3 hPa | 0 mm | - | 0 W/m² | - |
| 1777947108 | 21.11° C | 72% | 1003.4 hPa | 0 mm | - | 0 W/m² | - |
| 1777946803 | 21.67° C | 71% | 1003.3 hPa | 0 mm | - | 0 W/m² | - |
| 1777946500 | 21.67° C | 71% | 1003.2 hPa | 0 mm | - | 0 W/m² | - |
| 1777946197 | 21.67° C | 70% | 1003.1 hPa | 0 mm | - | 0 W/m² | - |
| 1777945893 | 21.67° C | 70% | 1003.1 hPa | 0 mm | - | 0 W/m² | - |
| 1777945590 | 21.67° C | 70% | 1003.2 hPa | 0 mm | - | 0 W/m² | - |
| 1777945282 | 21.67° C | 70% | 1002.9 hPa | 0 mm | - | 0 W/m² | - |
| 1777944980 | 21.67° C | 69% | 1002.6 hPa | 0 mm | - | 0 W/m² | - |
| 1777944676 | 22.22° C | 69% | 1002.6 hPa | 0 mm | - | 0 W/m² | - |
| 1777944374 | 22.22° C | 68% | 1002.6 hPa | 0 mm | - | 0 W/m² | - |
| 1777944066 | 22.22° C | 67% | 1002.4 hPa | 0 mm | - | 1 W/m² | - |
| 1777943761 | 22.22° C | 66% | 1002.4 hPa | 0 mm | - | 2 W/m² | - |
| 1777943458 | 22.78° C | 65% | 1002.3 hPa | 0 mm | - | 3 W/m² | - |
| 1777943153 | 22.78° C | 64% | 1002.1 hPa | 0 mm | - | 6 W/m² | - |
| 1777942850 | 23.33° C | 63% | 1002.4 hPa | 0 mm | - | 10 W/m² | - |
| 1777942546 | 23.89° C | 62% | 1002.1 hPa | 0 mm | - | 13 W/m² | - |
| 1777942244 | 23.89° C | 61% | 1002.2 hPa | 0 mm | - | 16 W/m² | - |
| 1777941941 | 25° C | 59% | 1002 hPa | 0 mm | - | 23 W/m² | - |
| 1777941638 | 25° C | 58% | 1002 hPa | 0 mm | - | 35 W/m² | - |
| 1777941335 | 25° C | 58% | 1001.8 hPa | 0 mm | - | 48 W/m² | - |
| 1777941032 | 25° C | 58% | 1001.9 hPa | 0 mm | - | 48 W/m² | - |
* Rain latest hour (hover to see other rain measurements)
** Current wind speed in m/s (hover to see current wind gust speed)